Weather History for Deadhorse, AK

Change the Weather History Date:

Monday, April 16, 2012

  Actual Average Record
Temperature  
Mean Temperature 6 °F -  
Max Temperature 15 °F 9 °F 43 °F (1988)
Min Temperature -2 °F -3 °F -24 °F (2009)
Degree Days  
Heating Degree Days 58    
Moisture  
Dew Point 6 °F    
Average Humidity 91    
Maximum Humidity 100    
Minimum Humidity 82    
Precipitation  
Precipitation 0.00 in - - ()
Sea Level Pressure  
Sea Level Pressure 30.02 in    
Wind  
Wind Speed 5 mph (ENE)    
Max Wind Speed 13 mph    
Max Gust Speed -    
Visibility 2 miles    
Events Fog , Snow    
Averages and records for this station are not official NWS values.
T = Trace of Precipitation, MM = Missing Value Source: NWS Daily Summary

Daily Weather History Graph

Daily Weather History Graph

Search for Another Location

Airport:

Trip Planner

Search our weather history database for the weather conditions in past years. The results will help you decide how hot, cold, wet, or windy it might be!

Date:

Astronomy

Apr. 16, 2012 Rise Set
Actual Time 5:39 AM AKDT 10:10 PM AKDT
Civil Twilight 4:12 AM AKDT 11:40 PM AKDT
Nautical Twilight Sun does not rise Sun does not rise
Astronomical Twilight Sun does not rise Sun does not rise
Moon 5:29 AM AKDT (4/16) 4:12 PM AKDT (4/16)
Length of Visible Light 19h 27m
Length of Day
16h 31m
Waning Crescent, 18% of the Moon is Illuminated
Apr 16
Waning Crescent
Apr 20
New
Apr 29
First Quarter
May 5
Full
May 12
Last Quarter

Hourly Weather History & Observations

Time (AKDT) Temp. Windchill Dew Point Humidity Pressure Visibility Wind Dir Wind Speed Gust Speed Precip Events Conditions
12:53 AM -0.9 °F -12.7 °F -2.9 °F 91% 30.00 in 8.0 mi West 5.8 mph - N/A   Clear
1:53 AM -2.9 °F -16.5 °F -7.1 °F 82% 30.01 in 10.0 mi West 6.9 mph - N/A   Clear
2:27 AM -2.2 °F -18.0 °F -5.8 °F 85% 30.00 in 9.0 mi West 9.2 mph - N/A   Partly Cloudy
2:34 AM -2.2 °F -18.9 °F -5.8 °F 85% 30.00 in 10.0 mi West 10.4 mph - N/A   Mostly Cloudy
2:53 AM -2.0 °F -16.6 °F -5.1 °F 87% 30.02 in 10.0 mi West 8.1 mph - N/A   Overcast
3:53 AM 1.9 °F -9.2 °F -0.9 °F 88% 30.03 in 10.0 mi WNW 5.8 mph - N/A   Overcast
4:21 AM 1.4 °F -6.2 °F -2.2 °F 85% 30.02 in 10.0 mi WNW 3.5 mph - N/A   Mostly Cloudy
4:53 AM 1.0 °F -6.7 °F -2.0 °F 87% 30.03 in 10.0 mi NW 3.5 mph - N/A   Mostly Cloudy
5:17 AM 1.4 °F -8.3 °F -0.4 °F 92% 30.02 in 7.0 mi North 4.6 mph - N/A   Overcast
5:25 AM 1.4 °F - -0.4 °F 92% 30.03 in 2.5 mi Calm Calm - N/A   Overcast
5:41 AM 1.4 °F - -0.4 °F 92% 30.03 in 1.0 mi Calm Calm - N/A   Mist
5:44 AM 1.4 °F - -0.4 °F 92% 30.03 in 0.2 mi Calm Calm - N/A Fog Light Freezing Fog
5:53 AM 3.0 °F - 1.9 °F 95% 30.03 in 0.2 mi Calm Calm - N/A Fog Light Freezing Fog
6:04 AM 3.2 °F - 3.2 °F 100% 30.02 in 0.2 mi Calm Calm - N/A Fog Light Freezing Fog
6:18 AM 3.2 °F - 1.4 °F 92% 30.03 in 0.5 mi Calm Calm - N/A Fog Light Freezing Fog
6:26 AM 3.2 °F - 3.2 °F 100% 30.02 in 0.2 mi Calm Calm - N/A Fog Light Freezing Fog
6:39 AM 3.2 °F - 3.2 °F 100% 30.03 in 0.2 mi Calm Calm - N/A Fog Light Freezing Fog
6:53 AM 5.0 °F -2.1 °F 3.0 °F 92% 30.04 in 0.2 mi SSE 3.5 mph - N/A Fog Light Freezing Fog
7:53 AM 3.0 °F -4.4 °F 1.0 °F 91% 30.04 in 0.2 mi SSW 3.5 mph - N/A Fog , Snow Light Snow
8:04 AM 3.2 °F - 1.4 °F 92% 30.03 in 0.2 mi Calm Calm - N/A Fog , Snow Light Snow
8:14 AM 3.2 °F - 1.4 °F 92% 30.03 in 0.5 mi Calm Calm - N/A Fog , Snow Light Snow
8:21 AM 3.2 °F - 1.4 °F 92% 30.03 in 1.2 mi Calm Calm - N/A Snow Light Snow
8:38 AM 3.2 °F -4.2 °F 1.4 °F 92% 30.03 in 2.0 mi WSW 3.5 mph - N/A Snow Light Snow
8:53 AM 5.0 °F -4.1 °F 3.0 °F 92% 30.04 in 4.0 mi WSW 4.6 mph - N/A Snow Light Snow
9:42 AM 6.8 °F - 5.0 °F 92% 30.03 in 1.8 mi Calm Calm - N/A Snow Light Snow
9:53 AM 7.0 °F - 5.0 °F 92% 30.03 in 1.5 mi Calm Calm - N/A Snow Light Snow
10:02 AM 6.8 °F - 5.0 °F 92% 30.02 in 0.5 mi Calm Calm - N/A Fog , Snow Light Snow
10:20 AM 8.6 °F - 6.8 °F 92% 30.02 in 0.5 mi Calm Calm - N/A Fog , Snow Light Snow
10:39 AM 8.6 °F - 6.8 °F 92% 30.02 in 0.8 mi Calm Calm - N/A Snow Light Snow
10:53 AM 9.0 °F - 7.0 °F 92% 30.03 in 1.0 mi Calm Calm - N/A   Overcast
11:03 AM 8.6 °F 2.0 °F 6.8 °F 92% 30.02 in 0.8 mi NW 3.5 mph - N/A   Overcast
11:53 AM 12.0 °F - 9.0 °F 88% 30.04 in 0.8 mi Calm Calm - N/A   Overcast
12:29 PM 12.2 °F 6.1 °F 10.4 °F 92% 30.03 in 0.5 mi ENE 3.5 mph - N/A Fog Light Freezing Fog
12:53 PM 12.0 °F 4.1 °F 10.0 °F 92% 30.04 in 0.5 mi ENE 4.6 mph - N/A Fog Light Freezing Fog
1:15 PM 12.2 °F 4.3 °F 10.4 °F 92% 30.03 in 0.5 mi East 4.6 mph - N/A Fog , Snow Light Snow
1:51 PM 12.2 °F 4.3 °F 10.4 °F 92% 30.03 in 0.5 mi East 4.6 mph - N/A Fog Light Freezing Fog
1:53 PM 12.9 °F 3.8 °F 10.9 °F 92% 30.04 in 0.5 mi East 5.8 mph - N/A Fog Light Freezing Fog
2:19 PM 12.2 °F 2.9 °F 10.4 °F 92% 30.03 in 0.5 mi East 5.8 mph - N/A Fog Light Freezing Fog
2:53 PM 12.0 °F 2.7 °F 10.9 °F 95% 30.04 in 0.5 mi East 5.8 mph - N/A Fog Light Freezing Fog
3:28 PM 12.2 °F 1.7 °F 10.4 °F 92% 30.02 in 1.2 mi East 6.9 mph - N/A   Overcast
3:53 PM 12.9 °F 1.6 °F 10.9 °F 92% 30.03 in 1.8 mi East 8.1 mph - N/A   Overcast
4:25 PM 12.2 °F 2.9 °F 10.4 °F 92% 30.02 in 0.5 mi East 5.8 mph - N/A Fog Light Freezing Fog
4:53 PM 14.0 °F 2.9 °F 12.0 °F 92% 30.02 in 1.0 mi NE 8.1 mph - N/A   Overcast
5:12 PM 15.8 °F 4.2 °F 12.2 °F 86% 30.01 in 2.5 mi ENE 9.2 mph - N/A   Overcast
5:42 PM 15.8 °F 5.1 °F 12.2 °F 86% 30.01 in 1.2 mi East 8.1 mph - N/A   Overcast
5:51 PM 14.0 °F 2.9 °F 12.2 °F 93% 30.01 in 0.5 mi ENE 8.1 mph - N/A Fog Light Freezing Fog
5:53 PM 14.0 °F 3.9 °F 12.9 °F 95% 30.02 in 0.8 mi ENE 6.9 mph - N/A   Overcast
6:12 PM 15.8 °F 6.1 °F 12.2 °F 86% 30.01 in 1.2 mi East 6.9 mph - N/A   Overcast
6:31 PM 15.8 °F 7.2 °F 12.2 °F 86% 30.01 in 2.0 mi ENE 5.8 mph - N/A   Overcast
6:53 PM 15.1 °F 5.2 °F 12.9 °F 91% 30.02 in 3.0 mi ENE 6.9 mph - N/A   Overcast
7:53 PM 15.1 °F 1.8 °F 12.9 °F 91% 30.01 in 7.0 mi ENE 11.5 mph - N/A   Overcast
8:53 PM 15.1 °F 2.5 °F 12.9 °F 91% 30.00 in 5.0 mi East 10.4 mph - N/A   Overcast
9:09 PM 15.8 °F 2.7 °F 12.2 °F 86% 29.99 in 1.8 mi ENE 11.5 mph - N/A   Overcast
9:28 PM 15.8 °F 3.4 °F 12.2 °F 86% 29.99 in 0.8 mi East 10.4 mph - N/A   Overcast
9:53 PM 15.1 °F 3.3 °F 12.9 °F 91% 30.01 in 0.5 mi ENE 9.2 mph - N/A Fog Light Freezing Fog
10:37 PM 14.0 °F 1.2 °F 12.2 °F 93% 29.99 in 1.5 mi ENE 10.4 mph - N/A   Overcast
10:53 PM 14.0 °F 1.2 °F 12.0 °F 92% 30.00 in 0.8 mi ENE 10.4 mph - N/A   Mist
11:53 PM 14.0 °F -0.2 °F 12.0 °F 92% 29.99 in 0.8 mi ENE 12.7 mph - N/A   Mist